Total_Precipitation_Accumulation
0.00 0.00 0.00 0.00 0.00 0.00 0.00 0.00 0.00 0.00 0.00 0.00 0.00 0.00 0.00 0.00 0.00 0.00 0.00 0.00 0.00 0.00 0.00 0.00 0.01 0.01 0.02 0.04 0.07 0.11 0.10 0.08 0.08 0.07 0.05 0.04 0.05 0.06 0.08 0.10 0.12 0.12 0.12
0.00 0.00 0.00 0.00 0.00 0.00 0.00 0.00 0.00 0.00 0.00 0.00 0.00 0.00 0.00 0.00 0.00 0.00 0.00 0.00 0.00 0.00 0.00 0.00 0.01 0.01 0.02 0.04 0.05 0.08 0.08 0.08 0.07 0.07 0.07 0.07 0.08 0.10 0.11 0.12 0.13 0.13 0.16
0.00 0.00 0.00 0.00 0.00 0.00 0.00 0.00 0.00 0.00 0.00 0.00 0.00 0.00 0.00 0.00 0.00 0.00 0.00 0.00 0.00 0.00 0.00 0.00 0.01 0.02 0.02 0.01 0.02 0.05 0.08 0.09 0.08 0.08 0.08 0.08 0.09 0.11 0.13 0.15 0.16 0.15 0.15
0.00 0.00 0.00 0.00 0.00 0.00 0.00 0.00 0.00 0.00 0.00 0.00 0.00 0.00 0.00 0.00 0.00 0.00 0.00 0.00 0.00 0.00 0.00 0.00 0.01 0.01 0.01 0.01 0.02 0.05 0.08 0.10 0.10 0.09 0.09 0.08 0.09 0.11 0.13 0.15 0.16 0.18 0.20
0.02 0.01 0.00 0.00 0.00 0.00 0.00 0.00 0.00 0.00 0.00 0.00 0.00 0.00 0.00 0.00 0.00 0.00 0.00 0.00 0.00 0.00 0.00 0.00 0.00 0.00 0.01 0.03 0.04 0.04 0.06 0.10 0.12 0.12 0.13 0.13 0.12 0.14 0.19 0.21 0.22 0.21 0.21
0.07 0.07 0.03 0.02 0.01 0.00 0.00 0.00 0.00 0.00 0.00 0.00 0.00 0.00 0.00 0.00 0.00 0.00 0.00 0.00 0.00 0.00 0.00 0.00 0.00 0.00 0.02 0.04 0.08 0.06 0.05 0.07 0.10 0.12 0.14 0.16 0.18 0.18 0.16 0.18 0.20 0.22 0.23
0.24 0.19 0.07 0.04 0.05 0.02 0.01 0.01 0.00 0.00 0.01 0.05 0.02 0.00 0.00 0.00 0.00 0.00 0.00 0.00 0.00 0.00 0.00 0.00 0.00 0.01 0.05 0.07 0.08 0.08 0.09 0.09 0.12 0.17 0.18 0.15 0.13 0.14 0.16 0.18 0.20 0.22 0.22
0.31 0.25 0.17 0.15 0.10 0.07 0.05 0.03 0.04 0.07 0.06 0.11 0.10 0.03 0.00 0.00 0.00 0.00 0.00 0.00 0.00 0.00 0.00 0.00 0.01 0.02 0.03 0.05 0.05 0.04 0.02 0.01 0.02 0.06 0.09 0.12 0.14 0.13 0.14 0.16 0.16 0.19 0.25
0.37 0.35 0.22 0.17 0.23 0.18 0.15 0.09 0.14 0.15 0.14 0.12 0.09 0.08 0.01 0.00 0.00 0.00 0.00 0.00 0.00 0.00 0.00 0.00 0.00 0.00 0.00 0.00 0.00 0.00 0.00 0.02 0.01 0.02 0.05 0.08 0.11 0.12 0.13 0.16 0.18 0.22 0.25
0.30 0.35 0.31 0.28 0.24 0.19 0.16 0.22 0.29 0.28 0.26 0.14 0.12 0.07 0.08 0.03 0.01 0.00 0.00 0.01 0.00 0.00 0.00 0.00 0.00 0.00 0.00 0.00 0.00 0.00 0.01 0.03 0.03 0.03 0.06 0.09 0.12 0.16 0.22 0.25 0.26 0.33 0.44
0.22 0.28 0.26 0.26 0.19 0.21 0.30 0.24 0.21 0.22 0.22 0.22 0.16 0.16 0.15 0.10 0.06 0.03 0.01 0.04 0.05 0.04 0.02 0.01 0.00 0.00 0.00 0.00 0.00 0.01 0.04 0.02 0.02 0.02 0.03 0.05 0.11 0.20 0.25 0.33 0.48 0.69 0.80
0.16 0.18 0.19 0.16 0.20 0.18 0.18 0.24 0.34 0.33 0.31 0.32 0.25 0.22 0.24 0.24 0.19 0.15 0.10 0.07 0.09 0.08 0.04 0.01 0.01 0.01 0.02 0.02 0.03 0.06 0.08 0.05 0.04 0.04 0.05 0.08 0.13 0.15 0.17 0.29 0.40 0.48 0.71
0.09 0.09 0.16 0.19 0.16 0.18 0.23 0.31 0.29 0.31 0.40 0.38 0.36 0.25 0.26 0.26 0.30 0.27 0.19 0.12 0.12 0.10 0.06 0.03 0.04 0.04 0.06 0.08 0.09 0.13 0.18 0.18 0.20 0.24 0.23 0.24 0.19 0.16 0.12 0.13 0.22 0.20 0.18
0.09 0.09 0.18 0.21 0.20 0.19 0.17 0.24 0.24 0.19 0.24 0.28 0.32 0.37 0.29 0.25 0.28 0.28 0.30 0.43 0.52 0.42 0.29 0.23 0.22 0.20 0.19 0.23 0.31 0.39 0.38 0.36 0.31 0.33 0.34 0.32 0.28 0.23 0.20 0.17 0.17 0.17 0.19
0.08 0.08 0.12 0.18 0.19 0.18 0.20 0.21 0.23 0.22 0.22 0.25 0.30 0.32 0.36 0.26 0.24 0.24 0.27 0.38 0.54 0.64 0.51 0.44 0.42 0.35 0.27 0.28 0.29 0.28 0.34 0.41 0.41 0.40 0.36 0.32 0.29 0.24 0.17 0.12 0.09 0.10 0.09
0.06 0.07 0.08 0.08 0.09 0.09 0.12 0.16 0.18 0.20 0.25 0.25 0.23 0.25 0.26 0.23 0.25 0.28 0.29 0.41 0.57 0.72 0.79 0.60 0.53 0.50 0.49 0.49 0.51 0.48 0.44 0.46 0.38 0.28 0.19 0.16 0.14 0.09 0.05 0.04 0.04 0.03 0.05
0.03 0.04 0.03 0.04 0.04 0.05 0.06 0.07 0.09 0.12 0.16 0.17 0.18 0.20 0.23 0.24 0.27 0.30 0.38 0.47 0.60 0.73 0.88 0.85 0.81 0.78 0.75 0.70 0.64 0.49 0.35 0.22 0.12 0.09 0.07 0.05 0.04 0.03 0.03 0.02 0.04 0.06 0.07
0.05 0.05 0.04 0.03 0.02 0.03 0.06 0.12 0.16 0.18 0.18 0.18 0.19 0.23 0.24 0.23 0.24 0.28 0.37 0.49 0.67 0.85 1.02 1.08 1.03 0.94 0.77 0.57 0.37 0.18 0.08 0.04 0.02 0.02 0.03 0.02 0.02 0.02 0.01 0.02 0.06 0.09 0.13
0.04 0.04 0.03 0.04 0.06 0.10 0.11 0.11 0.09 0.07 0.08 0.11 0.14 0.17 0.21 0.24 0.31 0.36 0.39 0.42 0.45 0.43 0.40 0.36 0.27 0.21 0.17 0.15 0.09 0.03 0.01 0.00 0.00 0.01 0.01 0.00 0.01 0.01 0.02 0.05 0.08 0.10 0.13
0.04 0.04 0.03 0.04 0.03 0.04 0.04 0.05 0.06 0.08 0.10 0.13 0.17 0.22 0.30 0.38 0.42 0.43 0.41 0.36 0.29 0.21 0.16 0.13 0.19 0.19 0.16 0.09 0.04 0.01 0.00 0.00 0.00 0.00 0.00 0.01 0.02 0.04 0.05 0.05 0.03 0.02 0.01
0.05 0.05 0.05 0.05 0.06 0.07 0.10 0.12 0.15 0.23 0.32 0.41 0.48 0.48 0.46 0.43 0.38 0.30 0.24 0.18 0.15 0.15 0.26 0.38 0.32 0.25 0.12 0.03 0.00 0.00 0.01 0.02 0.02 0.01 0.01 0.02 0.03 0.02 0.00 0.00 0.00 0.01 0.02
0.17 0.20 0.22 0.16 0.16 0.24 0.42 0.36 0.35 0.37 0.37 0.36 0.35 0.31 0.30 0.33 0.25 0.20 0.16 0.12 0.12 0.25 0.34 0.42 0.34 0.14 0.02 0.00 0.01 0.05 0.16 0.14 0.10 0.00 0.03 0.02 0.00 0.00 0.00 0.00 0.02 0.03 0.04
0.38 0.53 0.56 0.60 0.70 0.82 0.90 0.75 0.60 0.46 0.43 0.37 0.33 0.29 0.22 0.14 0.09 0.06 0.04 0.07 0.19 0.25 0.24 0.14 0.04 0.01 0.02 0.05 0.23 0.23 0.14 0.16 0.10 0.01 0.05 0.07 0.01 0.01 0.01 0.01 0.01 0.01 0.03
0.88 0.78 0.69 0.82 0.89 0.82 0.69 0.53 0.48 0.36 0.31 0.28 0.24 0.12 0.05 0.02 0.01 0.03 0.08 0.21 0.15 0.09 0.01 0.00 0.01 0.03 0.08 0.09 0.10 0.23 0.22 0.13 0.05 0.01 0.03 0.14 0.02 0.01 0.00 0.00 0.01 0.01 0.03
0.81 0.71 0.57 0.48 0.45 0.43 0.29 0.17 0.11 0.10 0.08 0.05 0.03 0.01 0.02 0.02 0.02 0.10 0.16 0.22 0.07 0.00 0.00 0.01 0.07 0.05 0.02 0.01 0.01 0.13 0.20 0.20 0.13 0.01 0.01 0.09 0.04 0.02 0.01 0.00 0.00 0.04 0.06
0.60 0.49 0.38 0.33 0.24 0.14 0.08 0.05 0.04 0.03 0.02 0.01 0.00 0.00 0.01 0.02 0.05 0.21 0.14 0.04 0.01 0.01 0.07 0.06 0.01 0.00 0.00 0.00 0.01 0.04 0.19 0.56 0.28 0.22 0.01 0.29 0.16 0.12 0.39 0.03 0.01 0.02 0.01